OPS 4682 DEB, 1399

Orbit data source: Space-Track

OPS 4682 DEB, 1399 is space debris in LEO originally from a launch on Sat, 03 Apr 1965 UTC launched from the Air Force Western Test Range (AFWTR). Debris objects in space refer to the collection of defunct objects orbiting the Earth. Examples of debris include non-operational satellites, rocket bodies, and fragments generated from explosions, collisions, or faulty payload assembly.

Loading next visibility...
Identifier
1399, 1965-027E
Orbit
LEO
Country
Flag of USUS
Related business
Manufacturer
Unknown
Mission
Spacecraft
Bus & Motor
Unknown
Mass
Unknown
Launch date (UTC)
1965-04-03 (61 years ago)
Launch vehicle
Unknown
Launch site
Air Force Western Test Range (AFWTR)
Object type
Payload
Rocket body
Debris
Shape & HBR
Unknown shape, 0.1 m
Radar Cross Section
Small (<0.1 m²)

Expand to show TLE details & history
Last TLE update: 11 hours ago

TLE from 11 hours ago
0 OPS 4682 DEB
1  1399U 65027E   25308.19357733  .00000982  00000-0  32493-2 0  9990
2  1399  90.2670  19.5267 0011202 156.9975 203.1651 12.99809380603877
Epoch: 2025-11-04T04:38Z
TLE epoch observation values (Epoch: 2025-11-04T04:38:45.081Z)
Latitude
0.00001°
Longitude
-93.84525°
Altitude
1,273.589 km
Speed
7.215 km/s
True Right ascension
01h 18m 06s
True Declination
0° 00' 00"
Sunlit
Object was in full shadow at epoch
Visualization orbit readout
Latitude
Unknown
Longitude
Unknown
Altitude
Unknown
Speed
Unknown
Apparent Right ascension
Unknown
Apparent Declination
Unknown
Sunlit
N/A
Visualization observer readout
Local Sidereal Time
11:57:11
Azimuth
Unknown
Elevation
Unknown
Doppler factor
Unknown
Orbital elements
Apogee altitude
1,268.517 km
Perigee altitude
1,251.405 km
Semi-major axis
7,638.098 km
Eccentricity
0.00112
Inclination
90.267°
RAAN
19.5267°
Arg. of periapsis
156.9975°
True anomaly
203.11467°
Mean anomaly
203.1651°
Eccentric anomaly
203.13988°
Mean motion
3.25136 °/min
Orbital period
110.72 mins
BSTAR
0.0032493
Loading maneuver chart data...
Computing Atmospheric mass density...
Loading historical data...
Loading historical data...
Loading historical data...
Loading historical data...
Loading historical data...
Loading historical data...
Loading historical data...

Documentation

Showing up to 5 results
|